Regional Weather Roundup
Issued by NWS

Home | Current Version | Previous Version | Graphics & Text | Print | Product List | Glossary On
Versions: 1 2 3 4 5 6 7 8 9 10 11 12 13 14 15 16 17 18 19 20 21 22 23 24 25 26 27 28 29 30 31 32 33 34 35 36 37 38 39 40 41 42 43 44 45 46 47 48 49 50
000
ASUS43 KLMK 302310
RWRKY
KENTUCKY REGIONAL WEATHER ROUNDUP
NATIONAL WEATHER SERVICE LOUISVILLE KY
700 PM EDT THU OCT 30 2014

NOTE "FAIR" INDICATES FEW OR NO CLOUDS BELOW 12,000 FEET
WITH NO SIGNIFICANT WEATHER AND/OR OBSTRUCTIONS TO VISIBILITY.

KYZ001>023-026-027-061>063-070>075-310000-
WESTERN AND SOUTH CENTRAL KENTUCKY

CITY           SKY/WX    TMP DP  RH WIND       PRES   REMARKS
PADUCAH        CLOUDY    58  42  55 S3        30.03S
HENDERSON      PTCLDY    54  37  54 CALM      30.04S
OWENSBORO      MOCLDY    56  40  55 NE3       30.05F
HOPKINSVILLE   CLEAR     57  38  47 CALM      30.04F
BOWLING GREEN  CLEAR     57  36  45 CALM      30.05S
GLASGOW        CLEAR     52  37  57 CALM      30.05R
$$

KYZ024-025-028>034-038-045-046-053-310000-
NORTH CENTRAL KENTUCKY

CITY           SKY/WX    TMP DP  RH WIND       PRES   REMARKS
LOUISVILLE/SDF PTCLDY    53  36  52 NE6       30.06R
LOUISVILLE/LOU CLEAR     53  35  50 NE3       30.06S
FORT KNOX      PTCLDY    52  39  61 N3        30.04S
$$

KYZ035>037-039>044-047>052-055>060-089>105-310000-
NORTHEAST KENTUCKY

CITY           SKY/WX    TMP DP  RH WIND       PRES   REMARKS
LEXINGTON      PTCLDY    48  36  63 NE6       30.07R
COVINGTON      MOCLDY    52  32  46 CALM      30.06S
FRANKFORT      CLEAR     50  36  58 E3        30.06R
$$

KYZ054-064>069-076>088-106>120-310000-
SOUTHEAST KENTUCKY

CITY           SKY/WX    TMP DP  RH WIND       PRES   REMARKS
JACKSON        CLEAR     48  34  58 CALM      30.05S
LONDON         CLEAR     54  37  52 CALM      30.03F
SOMERSET       PTCLDY    52  36  54 CALM      30.06R
MIDDLESBORO    CLEAR     51  40  67 CALM      30.03S
MONTICELLO     CLEAR     48  39  71 CALM      30.06S
$$




USA.gov is the U.S. government's official web portal to all federal, state and local government web resources and services.